CAPE
0 0 0 0 0 0 0 0 0 0 0 0 0 2 4 6 8 9 8 9 9 10 26 26 39 99 79
0 0 0 0 0 0 0 0 0 0 0 0 0 0 0 10 17 23 18 3 3 5 7 13 7 3 106
0 0 0 0 0 0 0 0 0 0 0 0 0 0 1 0 1 2 2 0 0 0 5 4 6 48 154
0 0 0 0 0 0 0 0 0 0 0 0 0 0 0 4 0 0 0 0 2 7 9 7 5 41 104
0 0 0 0 0 0 0 0 0 0 0 0 0 0 0 0 0 0 2 6 6 10 8 8 4 38 67
0 0 0 0 0 0 0 0 2 0 0 0 0 0 0 0 0 1 13 9 8 11 11 8 1 37 39
0 0 0 0 0 0 0 6 10 0 1 3 0 0 0 0 0 1 6 3 4 5 7 10 9 19 6
0 0 0 1 7 8 9 1 0 1 0 0 0 0 0 0 0 1 0 1 0 2 2 2 5 4 4
0 0 1 5 4 9 5 2 2 1 0 0 0 0 0 0 0 0 0 0 0 1 10 10 2 11 2
0 0 0 2 3 1 3 5 4 3 0 0 1 0 1 0 0 0 0 0 1 6 8 6 1 0 0
0 0 0 0 1 1 0 2 3 4 0 3 0 1 0 0 0 0 0 0 0 1 6 6 3 1 1
0 0 1 1 0 0 0 0 0 1 0 0 0 2 2 2 3 0 0 0 0 0 0 3 4 4 4
0 0 0 0 0 0 1 0 0 0 0 0 0 1 2 2 4 1 3 0 1 0 0 0 0 0 0
2 0 0 0 0 0 2 1 2 0 0 0 0 0 1 0 0 0 0 0 0 0 0 0 0 0 0
0 2 0 0 0 0 0 3 3 2 0 0 0 0 0 0 0 0 0 0 0 0 0 0 0 0 0
0 0 0 0 0 0 0 0 3 1 1 0 0 0 0 0 2 0 0 0 0 0 0 0 0 0 0
0 0 1 1 0 0 0 0 1 0 0 0 0 0 0 0 0 0 1 0 0 0 0 0 0 0 0
CIN
-0 -0 -0 -0 -0 -0 -0 -0 -0 -0 -0 -0 -0 -0 -0 -0 -0 -0 -0 -0 -0 -7 -0 -0 -0 -0 -0
-0 -0 -0 -0 -0 -0 -0 -0 -0 -0 -0 -0 -0 -0 -0 -0 -0 -0 -0 -0 -0 -0 -1 -9 -9 -27 -0
-0 -0 -0 -0 -0 -0 -0 -0 -0 -0 -0 -0 -0 -0 -0 -0 -0 -0 -0 -0 -0 -0 -0 -0 -18 -4 -0
-0 -0 -0 -0 -0 -0 -0 -0 -0 -0 -0 -0 -0 -0 -0 -0 -0 -0 -0 -0 -0 -0 -0 -0 -3 -0 -0
-0 -0 -0 -0 -0 -0 -0 -0 -0 -0 -0 -0 -0 -0 -0 -0 -0 -0 -0 -0 -0 -0 -0 -0 -3 -0 -0
-0 -0 -0 -0 -0 -0 -0 -0 -0 -0 -0 -1 -0 -0 -0 -0 -0 -0 -0 -0 -0 -0 -7 -0 -0 -0 -0
-0 -0 -0 -0 -0 -1 -1 -0 -0 -0 -16 -1 -0 -0 -0 -0 -0 -0 -0 -0 -0 -0 -31 -0 -2 -7 -22
-0 -0 -2 -1 -1 -0 -0 -1 -1 -6 -0 -1 -0 -0 -0 -0 -0 -0 -0 -0 -0 -0 -0 -0 -0 -4 -26
-0 -0 -0 -0 -0 -0 -0 -0 -0 -0 -0 -0 -0 -0 -0 -0 -0 -0 -0 -0 -0 -0 -0 -0 -0 -5 -0
-0 -0 -0 -3 -0 -2 -1 -0 -0 -0 -3 -0 -0 -0 -0 -0 -0 -0 -0 -0 -0 -0 -0 -0 -0 -0 -0
-0 -0 -0 -0 -5 -4 -4 -2 -0 -0 -0 -0 -0 -0 -0 -0 -0 -0 -0 -0 -0 -0 -0 -0 -0 -0 -0
-0 -0 -3 -2 -0 -15 -0 -0 -0 -0 -0 -0 -0 -0 -0 -0 -0 -0 -0 -0 -0 -0 -0 -0 -0 -0 -0
-2 -0 -0 -0 -0 -0 -13 -0 -0 -0 -0 -0 -0 -0 -0 -0 -0 -0 -0 -0 -0 -0 -0 -0 -0 -0 -0
-2 -0 -0 -0 -0 -0 -0 -0 -2 -2 -0 -0 -0 -0 -0 -0 -0 -0 -0 -0 -0 -0 -0 -0 -0 -0 -0
-1 -2 -0 -0 -0 -0 -0 -0 -0 -0 -0 -0 -0 -0 -0 -0 -0 -0 -0 -0 -0 -0 -0 -0 -0 -0 -0
-2 -1 -0 -0 -0 -1 -0 -0 -0 -0 -1 -0 -0 -0 -0 -0 -1 -0 -0 -0 -0 -0 -0 -0 -0 -0 -0
-0 -0 -0 -0 -0 -0 -0 -0 -0 -0 -0 -0 -0 -0 -0 -0 -0 -0 -0 -0 -0 -0 -0 -0 -0 -0 -0
Wind_Speed
2 3 1 5 4 4 3 4 4 11 13 14 15 17 18 19 19 19 19 20 22 23 23 23 26 27 27
2 3 3 3 3 4 3 3 4 8 14 17 18 19 19 19 18 18 18 20 19 21 23 25 27 28 29
2 3 1 2 3 3 5 5 4 11 16 16 19 18 19 21 20 20 20 21 20 19 21 23 26 27 27
2 2 2 3 3 4 6 3 7 8 11 13 17 19 22 22 22 19 20 22 23 23 22 21 22 20 22
2 2 2 3 4 3 4 6 6 5 4 6 8 7 8 14 16 19 21 23 23 23 24 22 22 20 20
2 2 3 3 2 4 7 9 6 3 5 9 6 10 9 8 18 22 21 23 22 23 22 21 20 20 20
1 2 3 3 9 8 8 7 7 8 7 8 5 9 8 9 20 22 21 19 19 20 21 21 19 19 16
3 4 6 7 7 7 8 8 7 7 5 8 6 7 7 7 19 16 15 17 18 21 22 23 21 19 18
10 13 13 13 11 7 4 6 7 7 6 4 3 7 9 8 4 10 14 17 19 23 26 20 19 12 7
5 6 8 7 12 7 6 7 7 6 0 4 7 4 5 2 3 3 5 12 18 19 19 17 15 6 4
4 4 4 4 5 6 5 5 7 7 9 5 4 6 3 6 3 2 3 6 7 8 15 11 9 6 2
4 4 5 6 4 6 7 7 7 9 12 7 3 4 5 7 6 3 4 3 3 3 3 6 7 6 6
5 5 4 6 6 7 7 8 8 6 5 4 4 5 5 6 7 8 8 3 4 2 3 3 2 2 3
5 5 4 5 6 6 8 8 7 6 4 5 5 4 5 6 6 8 4 3 3 2 2 2 2 3 4
4 6 5 5 6 5 7 8 7 7 6 4 4 5 5 5 5 3 4 2 2 2 2 3 3 3 5
5 5 6 6 6 6 6 7 7 7 7 6 2 3 3 4 5 5 3 2 2 2 2 2 3 4 5
4 5 6 6 9 6 7 8 8 7 7 5 1 1 1 3 3 2 2 2 2 1 2 2 3 5 7
Wind_Direction
62 61 78 43 5 359 358 337 333 333 333 329 328 321 312 309 303 300 309 310 303 295 287 282 278 255 214
5 12 48 28 348 346 342 329 329 324 330 323 317 311 313 311 310 307 310 310 307 304 298 286 278 283 222
326 356 310 8 342 348 335 337 330 320 316 312 314 315 319 314 313 310 303 302 301 301 302 296 281 275 237
319 327 341 354 358 341 337 334 323 315 310 309 324 325 317 319 313 304 300 302 305 306 307 308 281 260 246
340 329 309 350 351 333 302 314 315 280 304 321 311 298 292 301 299 302 301 305 304 304 303 304 305 243 240
17 325 302 300 297 318 327 329 335 301 317 301 295 296 299 301 296 303 304 308 307 306 303 304 312 257 225
319 296 309 308 327 318 311 296 292 295 294 296 289 287 287 291 294 303 313 315 315 313 308 305 294 284 205
352 295 311 326 315 307 304 304 295 286 292 287 299 281 287 292 292 312 320 325 332 326 313 299 291 282 202
3 341 326 321 317 332 305 310 306 308 295 279 291 306 303 286 290 321 333 335 342 336 321 287 280 217 180
343 337 320 315 326 331 318 309 307 302 316 319 305 325 307 271 304 309 322 336 342 342 333 59 80 77 61
317 304 311 313 319 303 285 279 288 279 292 303 296 305 247 302 299 299 325 332 337 337 358 46 60 72 59
306 327 324 325 293 294 282 271 251 270 289 285 265 288 292 299 294 320 303 308 322 318 340 348 7 347 290
319 316 311 298 299 302 297 280 275 264 277 271 250 279 275 277 288 305 319 310 330 345 359 340 328 333 329
322 324 307 311 309 311 310 307 302 302 265 253 249 255 282 276 290 297 287 291 332 358 335 298 294 302 276
313 310 301 304 305 310 306 308 303 310 311 292 242 244 252 266 303 284 284 283 295 312 357 308 297 299 298
307 302 299 304 304 315 313 312 306 305 301 301 297 330 332 278 239 299 290 300 336 10 0 319 300 314 315
281 294 301 308 316 307 314 314 308 305 290 288 245 188 308 261 280 1 295 302 346 355 330 301 293 314 319